{"data":{"norad_id":55346,"epoch":"2026-05-24T23:20:28.898880Z","epoch_age_seconds":81379,"freshness":"FRESH","line1":"1 55346U 23013R   26144.97255670  .00000090  00000+0  12801-4 0  9994","line2":"2 55346  43.0028 232.2772 0001908 270.3265  89.7368 15.27575692183349","mean_motion":15.27575692,"eccentricity":0.0001908,"inclination_deg":43.0028,"raan_deg":232.2772,"arg_perigee_deg":270.3265,"mean_anomaly_deg":89.7368,"bstar":1.2801e-5,"rev_number":18334,"period_min":94.26701456048,"perigee_km":481.75287900337,"apogee_km":484.37111254016,"semimajor_km":6861.1989957718,"source":"CELESTRAK","updated_at":"2026-05-25T13:38:17.762647Z"}}